Simultaneous Nadir Overpasses (SNOs) Predictions

Prediction of SNOs between FY3D and AQUA Satellite Orbit:

Table of predicted SNOs for the next 14.0 days since TLE Epoch: 8/3/2019
Index Date (FY3D) Time (FY3D) Lat,Lon (FY3D) SZA (FY3D ) Date (AQUA) Time (AQUA) Lat,Lon (AQUA) SZA (AQUA ) Distance(km) Time Diff (sec)
1 08/04/2019 13:05:07 68.31,-151.44 89.05 08/04/2019 13:05:37 68.32,-151.39 89.00 2.26 30
2 08/04/2019 13:54:41 -72.09, 21.78 95.02 08/04/2019 13:53:56 -72.09, 21.73 94.96 2.19 45
3 08/07/2019 05:21:31 68.46, -35.36 89.58 08/07/2019 05:22:03 68.47, -35.33 89.54 1.22 32
4 08/07/2019 06:11:21 -71.41, 136.42 93.58 08/07/2019 06:10:37 -71.42, 136.47 93.55 2.10 44
5 08/09/2019 21:37:54 68.67, 80.80 90.08 08/09/2019 21:38:28 68.67, 80.80 90.04 0.16 34
6 08/09/2019 22:27:45 -71.56,-107.44 93.01 08/09/2019 22:27:03 -71.56,-107.42 92.98 0.79 42
7 08/12/2019 13:54:14 68.98,-162.90 90.49 08/12/2019 13:54:50 68.97,-162.94 90.47 1.74 36
8 08/12/2019 14:44:07 -71.75, 8.80 92.48 08/12/2019 14:43:27 -71.75, 8.78 92.43 0.84 40
9 08/15/2019 06:10:54 68.27, -47.95 92.00 08/15/2019 06:11:31 68.27, -47.92 91.95 1.21 37




NCC Satellite Simultaneous Nadir Overpasses (SNOs) Prediction Service
